RH
89 88 90 99 100 99 100 100 99 100 100 99 99 100 100 100 100 100 100 99 99 100 100 100 100 100 100 100 99 99 100 100 88 100 93 97 100 100 100 100 100 100 100
94 98 93 96 96 96 100 99 93 98 96 99 99 98 98 100 100 100 100 97 100 100 100 100 100 100 100 100 100 100 100 100 100 87 100 91 99 100 100 95 95 88 93
86 92 97 90 87 89 92 91 87 94 93 91 97 99 98 98 100 99 98 99 100 100 100 100 100 100 100 100 100 100 100 100 100 99 100 99 98 95 92 96 84 82 100
79 61 82 93 67 68 76 78 72 83 90 93 98 100 100 100 100 97 97 97 98 99 100 100 100 100 100 99 100 100 100 100 97 98 100 99 98 97 97 99 95 83 100
73 62 55 55 67 56 60 59 55 56 65 65 84 98 100 98 99 98 95 98 100 96 98 98 99 98 100 100 99 100 98 99 99 98 98 96 97 96 98 98 97 95 99
43 44 51 50 51 56 51 52 51 49 51 50 50 61 94 95 89 86 93 96 97 96 98 96 99 97 95 98 96 98 100 95 93 89 91 86 89 95 96 96 94 91 94
44 44 44 46 47 50 51 49 48 50 51 52 50 46 58 76 73 65 61 78 87 93 93 83 78 84 75 69 77 80 92 92 90 82 84 90 89 96 92 86 84 81 80
49 46 45 45 48 51 51 51 50 50 54 57 60 54 50 76 73 54 48 50 65 74 83 80 75 72 74 52 53 68 76 87 90 85 90 92 92 94 86 78 78 81 77
60 57 56 52 53 54 60 61 58 59 61 65 69 74 67 68 82 68 46 49 54 67 72 84 75 77 83 61 43 42 65 86 90 97 98 98 98 98 99 76 71 64 66
77 72 64 68 72 80 78 69 67 72 70 74 79 81 85 76 82 85 64 60 72 67 75 77 87 83 84 82 58 54 66 86 89 89 91 93 96 97 98 98 93 78 74
77 76 71 78 87 79 75 76 84 82 82 85 85 87 89 89 84 83 88 81 78 76 78 81 86 89 88 90 88 84 89 91 86 83 81 82 84 87 91 95 98 96 87
68 71 79 74 73 89 86 78 77 74 76 76 76 78 82 87 90 87 86 91 90 82 86 89 92 91 91 90 91 92 90 89 85 80 78 80 84 86 89 90 94 94 94
62 63 65 70 76 75 74 78 64 64 62 62 64 68 70 75 78 87 86 84 90 89 92 91 90 92 89 89 90 92 91 87 83 80 81 84 87 88 86 83 83 83 82
53 54 55 56 57 62 61 64 68 68 66 67 69 70 71 73 76 77 78 78 82 86 85 83 85 82 83 82 82 84 86 86 84 83 83 82 81 78 78 78 76 72 69
47 48 50 52 52 58 67 68 69 83 80 75 79 77 76 76 80 80 79 79 82 88 79 76 77 76 74 75 74 76 78 80 81 80 79 77 75 73 70 71 68 66 64
49 49 52 52 53 51 53 66 85 86 85 86 82 83 85 79 80 80 80 84 86 81 72 72 73 73 70 67 67 68 70 74 77 74 74 74 74 71 69 65 64 65 62
48 54 55 52 55 59 60 60 66 78 60 76 86 85 84 82 80 82 84 78 75 70 64 66 70 70 64 58 59 61 64 70 71 72 73 75 78 75 70 66 64 64 63
73 75 73 78 79 77 76 76 76 73 73 76 81 68 77 91 89 88 92 74 65 63 62 61 64 64 60 56 58 63 69 71 72 73 72 77 79 78 74 68 65 67 66
89 84 86 87 87 82 82 79 77 75 73 72 70 74 82 84 94 96 86 76 73 66 62 60 62 62 61 62 70 77 79 74 75 74 74 76 80 80 76 72 71 70 69
79 84 80 81 84 81 80 77 74 73 71 70 69 73 75 73 72 72 73 76 75 70 70 66 64 65 76 78 80 83 82 72 70 71 74 77 79 82 79 77 75 72 65
82 86 81 79 77 77 76 74 72 72 71 69 71 93 84 93 80 75 74 74 77 77 79 81 80 81 80 80 89 84 83 84 79 78 78 77 79 80 76 78 77 74 67
80 79 80 77 76 78 76 74 75 76 74 72 74 80 94 95 85 81 77 81 87 86 85 85 87 85 85 89 91 91 90 88 84 86 88 80 77 75 76 79 79 78 73
81 80 76 74 76 82 82 80 80 83 79 83 88 86 87 88 88 85 84 88 90 91 93 92 94 89 90 96 98 96 92 91 94 95 88 86 80 76 79 79 80 79 75
81 80 74 75 84 78 81 84 85 90 94 90 91 90 89 89 88 87 89 95 98 100 100 100 100 100 99 100 100 99 97 100 100 99 96 93 87 79 80 80 79 82 81
87 89 88 84 83 86 91 90 92 94 94 93 93 93 87 89 86 89 97 100 100 100 100 100 100 100 100 100 100 100 100 100 100 100 100 97 92 88 85 81 82 84 82
89 87 91 93 94 97 96 95 96 98 98 97 94 93 94 92 93 100 100 100 100 100 100 100 100 100 100 100 100 100 100 100 100 100 100 97 92 87 85 85 85 86 82
Wind_Speed
12 13 15 16 17 19 23 27 27 28 30 29 29 29 33 39 35 34 40 44 37 32 31 32 29 18 12 9 7 8 3 7 10 6 16 16 10 13 13 14 13 13 11
13 13 14 16 19 21 23 26 29 31 33 33 33 36 35 35 37 44 41 44 37 38 39 41 36 30 29 22 16 14 11 8 4 7 7 14 15 16 14 14 13 12 11
12 14 13 17 18 22 24 24 30 30 34 36 37 36 35 35 37 46 40 37 39 44 43 43 44 38 37 33 27 25 25 27 28 20 11 17 13 22 20 16 17 17 14
11 11 15 16 17 18 21 22 23 28 30 34 33 31 36 37 39 43 41 36 40 40 40 40 45 42 44 38 32 28 28 32 33 25 18 17 15 24 23 22 19 22 13
11 14 15 15 16 18 20 21 23 25 27 29 31 35 35 40 39 36 35 35 34 36 37 39 37 40 40 42 43 32 31 27 25 22 16 20 22 20 18 18 18 16 7
11 14 14 15 16 18 19 20 22 24 25 28 31 34 37 36 35 35 32 33 36 31 33 33 30 38 34 35 36 34 40 29 27 24 25 22 24 23 23 23 20 12 5
11 13 14 14 16 17 18 20 22 23 25 27 31 33 34 33 32 31 28 31 34 33 35 34 32 31 26 27 27 28 34 33 33 28 25 23 22 22 19 17 18 15 13
12 13 13 13 14 15 17 19 21 22 24 26 28 30 32 35 29 25 23 27 31 34 34 30 27 30 30 24 22 25 26 32 30 26 21 19 19 17 14 12 13 12 8
12 12 12 12 13 14 16 17 17 21 23 24 26 27 29 33 33 28 24 24 25 27 29 35 31 34 33 26 22 21 23 23 17 21 20 19 18 19 20 15 18 15 10
11 11 11 11 12 14 14 15 16 17 19 21 23 25 25 28 31 29 24 22 25 24 25 26 31 29 28 27 26 25 24 23 23 21 19 19 17 18 21 18 16 15 15
9 9 9 10 11 12 12 13 14 16 16 16 17 20 21 24 27 29 27 22 20 19 20 22 24 27 30 29 28 27 22 18 21 21 21 20 19 20 19 18 17 14 15
9 8 8 8 8 10 10 11 12 11 12 14 14 15 17 18 21 23 24 23 19 19 18 17 19 21 24 28 26 25 24 21 21 20 20 21 21 22 22 20 18 15 13
8 8 7 7 6 7 9 10 10 11 12 12 13 14 15 17 17 17 19 20 18 16 15 14 14 17 18 20 23 23 22 21 19 21 21 21 20 19 18 19 18 18 17
8 7 6 6 6 6 7 8 10 10 10 11 12 12 12 14 16 17 16 16 16 15 15 16 16 16 17 18 21 22 23 22 21 20 19 18 17 18 18 19 19 20 19
8 7 6 5 4 6 8 8 8 10 10 9 10 11 12 14 15 14 15 17 16 14 15 15 17 18 18 19 19 20 20 20 20 19 19 20 20 20 20 20 19 20 19
8 6 5 4 4 4 4 5 8 8 8 10 10 10 8 10 11 12 13 13 15 14 14 16 17 17 17 18 18 19 19 20 20 19 19 19 20 21 22 20 19 19 19
6 6 5 4 3 3 3 2 2 3 5 6 7 8 9 9 10 12 14 11 10 13 14 14 15 15 15 15 16 17 18 18 18 18 19 19 20 21 21 21 21 21 21
7 7 5 4 4 3 3 2 2 2 2 3 5 6 8 9 10 12 15 13 14 14 14 13 13 13 13 13 13 14 14 15 16 17 17 18 19 20 21 21 21 21 23
8 7 6 5 4 4 2 1 1 2 3 5 6 5 8 12 8 7 12 15 15 15 15 15 14 14 14 13 13 13 13 14 14 16 16 17 18 19 20 21 22 22 24
6 7 6 5 4 3 2 2 2 3 5 6 7 8 10 13 13 14 14 15 15 15 16 16 16 16 16 15 15 14 14 14 15 15 16 16 17 18 20 21 21 23 23
7 7 7 5 4 4 3 4 4 5 6 8 9 6 9 11 13 13 15 15 15 15 15 15 16 16 16 17 17 17 16 15 15 16 16 17 18 19 20 20 21 21 22
7 7 7 5 4 5 5 5 6 7 8 9 10 9 10 9 12 14 15 15 15 15 15 15 16 16 16 16 17 18 18 18 17 16 16 17 18 19 20 21 21 22 22
7 6 5 4 4 4 5 6 7 8 9 10 10 10 10 11 13 14 14 14 14 14 14 14 15 15 15 15 16 16 17 18 18 17 17 17 18 19 19 21 22 22 22
6 5 4 3 3 3 4 5 6 6 7 7 8 10 12 13 14 14 14 14 14 13 13 14 14 15 15 16 16 15 15 16 17 18 19 18 17 17 18 20 21 22 23
6 4 2 2 3 4 5 5 4 5 6 8 10 11 12 12 12 12 12 12 13 14 14 14 14 15 16 18 18 17 18 19 20 20 19 17 16 16 17 19 21 23 22
5 4 3 2 3 3 2 3 4 6 7 8 9 10 10 11 11 11 12 12 13 15 15 15 15 16 18 17 15 18 20 18 19 18 15 15 14 14 16 18 20 22 21
Wind_Direction
32 29 28 24 28 28 25 24 22 22 18 19 22 26 32 35 36 39 44 42 35 38 46 51 45 41 55 76 84 84 76 271 204 113 79 21 38 74 82 104 106 103 89
33 36 36 29 35 38 31 31 30 26 29 25 24 29 34 37 38 43 41 42 39 39 45 49 42 41 41 44 66 71 65 34 4 165 89 82 343 52 62 69 70 63 74
34 36 35 34 29 36 31 30 34 30 33 34 29 26 32 37 40 45 44 42 45 42 43 48 45 41 37 32 35 55 60 60 62 69 78 73 30 45 50 46 47 42 62
40 36 35 35 33 35 32 35 37 35 34 36 34 31 36 37 41 44 40 40 44 45 45 45 52 45 45 35 28 35 58 66 67 67 61 56 51 34 37 30 20 36 41
54 47 33 38 36 39 39 38 41 41 39 39 36 37 38 39 39 46 44 42 44 45 44 43 49 52 53 52 41 28 46 55 60 58 50 53 43 33 20 21 17 27 56
58 55 40 34 39 37 41 41 43 44 42 42 41 39 37 37 38 46 47 44 45 45 43 45 40 49 46 50 56 45 53 52 56 55 44 42 31 23 21 23 15 12 349
65 59 51 40 40 39 41 44 44 45 44 43 43 43 42 38 34 40 46 48 49 45 43 42 40 45 49 49 52 51 52 53 57 58 56 44 36 21 17 21 16 10 359
73 63 56 51 46 46 44 45 45 45 47 45 44 43 42 36 38 40 46 50 50 47 47 45 44 43 42 49 49 52 51 49 49 56 57 52 44 26 17 20 9 6 14
82 73 61 56 54 50 52 49 47 50 48 48 47 45 44 38 32 33 40 47 51 49 46 43 41 37 33 40 46 52 54 51 48 55 60 57 46 36 33 25 19 18 17
90 83 75 65 61 55 52 51 50 53 54 51 49 46 44 42 37 38 39 40 41 41 42 43 41 44 41 40 43 40 39 28 29 32 35 42 36 30 31 31 20 16 10
111 99 82 71 69 63 57 49 51 50 51 50 51 47 46 44 39 37 42 48 46 44 40 35 35 36 39 40 43 41 36 27 28 27 27 26 25 18 16 15 10 8 353
118 107 97 83 69 62 60 55 51 49 49 49 47 48 43 37 38 37 39 43 45 47 43 39 36 33 37 38 39 35 34 35 31 27 26 22 14 6 360 359 358 352 342
130 120 108 98 87 73 61 53 48 46 45 45 44 42 38 33 33 33 30 31 34 42 40 39 35 36 40 40 39 38 36 33 28 25 19 12 5 356 353 352 351 346 341
142 135 124 106 88 77 66 55 48 40 42 42 39 39 38 36 29 25 23 22 22 29 28 26 27 28 32 32 30 30 29 26 23 19 11 3 359 358 355 351 346 344 338
153 146 137 124 111 88 70 59 60 53 49 43 40 37 28 31 27 23 23 21 18 22 23 25 24 22 23 25 24 24 21 19 17 12 6 1 357 355 353 348 344 340 336
163 162 154 138 121 111 110 88 67 72 62 59 54 50 50 42 29 24 18 16 16 13 20 20 18 15 14 13 14 12 13 11 8 3 1 358 353 350 347 343 341 338 332
178 163 154 141 126 111 96 89 91 64 52 57 52 45 36 25 17 13 8 0 8 7 15 13 10 6 4 4 5 4 1 360 356 356 354 353 349 345 343 340 338 336 332
162 155 151 141 130 118 105 89 57 28 13 10 2 20 11 7 3 3 359 354 359 360 360 356 353 350 349 349 350 351 350 348 350 348 346 345 344 341 339 337 334 331 328
160 160 153 149 144 145 142 127 352 337 344 343 343 347 353 347 332 339 351 355 349 346 345 339 334 330 328 330 332 330 333 338 338 339 339 337 338 337 333 330 326 325 323
167 169 166 169 171 187 212 251 291 310 315 321 324 329 334 339 340 339 341 341 338 335 333 330 326 321 317 313 313 312 314 322 327 330 331 331 332 329 326 324 323 322 320
186 186 185 194 209 223 244 265 282 294 304 312 317 324 311 325 324 329 330 331 330 328 327 325 324 322 318 312 305 302 302 306 310 315 317 324 326 323 323 320 318 316 315
189 190 197 216 230 244 259 271 287 295 300 304 310 317 328 319 322 323 323 323 322 321 320 318 317 317 317 316 311 303 297 296 297 300 306 313 317 320 321 320 318 317 315
187 191 203 223 247 265 269 272 287 297 303 309 312 312 316 318 318 318 317 316 316 316 316 314 312 311 309 310 309 308 303 296 295 295 294 298 308 314 318 319 320 316 316
178 181 200 231 246 259 273 286 294 301 306 310 314 315 315 315 315 315 314 314 314 314 315 311 310 306 305 307 307 303 300 307 303 294 286 283 291 304 313 315 318 316 313
173 180 194 232 255 276 286 291 298 308 311 313 313 313 313 313 314 314 314 314 312 313 312 310 306 305 306 304 304 301 298 307 309 297 279 270 277 294 302 310 315 316 312
202 210 231 255 272 281 293 304 310 314 315 315 315 315 316 316 315 314 315 315 313 313 312 308 307 307 309 310 307 304 307 312 317 309 273 260 273 289 303 310 313 317 311